2023/02/05 00:00:00,33.0,-1.6
2023/02/05 00:10:00,33.0,-1.8
2023/02/05 00:20:00,33.0,-2.0
2023/02/05 00:30:00,33.0,-2.3
2023/02/05 00:40:00,33.0,-1.9
2023/02/05 00:50:00,33.0,-1.8
2023/02/05 01:00:00,33.0,-2.3
2023/02/05 01:10:00,32.9,-2.1
2023/02/05 01:20:00,32.8,-2.4
2023/02/05 01:30:00,32.7,-2.5
2023/02/05 01:40:00,32.7,-2.4
2023/02/05 01:50:00,32.7,-2.8
2023/02/05 02:00:00,32.6,-1.9
2023/02/05 02:10:00,32.6,-2.1
2023/02/05 02:20:00,32.6,-1.5
2023/02/05 02:30:00,32.7,-1.8
2023/02/05 02:40:00,32.6,-1.7
2023/02/05 02:50:00,32.6,-1.4
2023/02/05 03:00:00,32.6,-1.6
2023/02/05 03:10:00,32.7,-1.3
2023/02/05 03:20:00,32.6,-1.3
2023/02/05 03:30:00,32.7,-1.7
2023/02/05 03:40:00,32.8,-1.4
2023/02/05 03:50:00,32.7,-1.1
2023/02/05 04:00:00,32.7,-1.5
2023/02/05 04:10:00,32.7,-1.4
2023/02/05 04:20:00,32.6,-1.1
2023/02/05 04:30:00,32.6,-1.6
2023/02/05 04:40:00,32.6,-1.2
2023/02/05 04:50:00,32.5,-1.3
2023/02/05 05:00:00,32.5,-1.2
2023/02/05 05:10:00,32.5,-1.1
2023/02/05 05:20:00,32.6,-1.1
2023/02/05 05:30:00,32.6,-0.4
2023/02/05 05:40:00,32.4,-0.8
2023/02/05 05:50:00,32.5,-0.8
2023/02/05 06:00:00,32.5,-1.0
2023/02/05 06:10:00,32.4,-1.4
2023/02/05 06:20:00,32.4,-1.6
2023/02/05 06:30:00,32.4,-2.0
2023/02/05 06:40:00,32.4,-2.1
2023/02/05 06:50:00,32.4,-2.2
2023/02/05 07:00:00,32.4,-2.5
2023/02/05 07:10:00,32.5,-2.4
2023/02/05 07:20:00,32.5,-2.4
2023/02/05 07:30:00,32.5,-2.4
2023/02/05 07:40:00,32.5,-2.4
2023/02/05 07:50:00,32.5,-2.2
2023/02/05 08:00:00,32.5,-2.1
2023/02/05 08:10:00,32.5,-2.4
2023/02/05 08:20:00,32.5,-1.9
2023/02/05 08:30:00,32.6,-2.0
2023/02/05 08:40:00,32.6,-1.8
2023/02/05 08:50:00,32.5,-1.7
2023/02/05 09:00:00,32.5,-1.6
2023/02/05 09:10:00,32.5,-0.6
2023/02/05 09:20:00,32.5,-0.5
2023/02/05 09:30:00,32.2, 4.2
2023/02/05 09:40:00,31.7, 3.7
2023/02/05 09:50:00,31.5,11.0
2023/02/05 10:00:00,31.5,10.3
2023/02/05 10:10:00,31.7, 4.7
2023/02/05 10:20:00,31.5, 6.1
2023/02/05 10:30:00,31.5, 9.0
2023/02/05 10:40:00,31.6, 9.7
2023/02/05 10:50:00,31.6, 9.9
2023/02/05 11:00:00,31.5,11.2
2023/02/05 11:10:00,31.5,10.7
2023/02/05 11:20:00,31.4,12.3
2023/02/05 11:30:00,31.3,13.2
2023/02/05 11:40:00,31.3,13.1
2023/02/05 11:50:00,31.3,13.2
2023/02/05 12:00:00,31.2,11.0
2023/02/05 12:10:00,31.0,11.4
2023/02/05 12:20:00,30.8,10.0
2023/02/05 12:30:00,30.5, 9.8
2023/02/05 12:40:00,30.5, 9.8
2023/02/05 12:50:00,---,10.8
2023/02/05 13:00:00,30.1, 9.9
2023/02/05 13:10:00, 7.4,10.2
2023/02/05 13:20:00,29.3,11.6
2023/02/05 13:30:00,29.4,11.7
2023/02/05 13:40:00,29.5,12.3
2023/02/05 13:50:00,29.3,11.7
2023/02/05 14:00:00,29.2,11.8
2023/02/05 14:10:00,29.1,10.3
2023/02/05 14:20:00,29.1, 8.4
2023/02/05 14:30:00,29.2, 8.1
2023/02/05 14:40:00,29.3, 8.2
2023/02/05 14:50:00,29.4, 7.8
2023/02/05 15:00:00,29.3, 7.4
2023/02/05 15:10:00,29.2, 7.8
2023/02/05 15:20:00,29.0, 7.3
2023/02/05 15:30:00,29.0, 6.8
2023/02/05 15:40:00,28.9, 6.2
2023/02/05 15:50:00,29.0, 5.9
2023/02/05 16:00:00,28.9, 5.3
2023/02/05 16:10:00,28.8, 5.0
2023/02/05 16:20:00,28.9, 4.4
2023/02/05 16:30:00,28.9, 3.0
2023/02/05 16:40:00,28.8, 2.6
2023/02/05 16:50:00,28.8, 2.3
2023/02/05 17:00:00,28.8, 1.7
2023/02/05 17:10:00,28.8, 1.7
2023/02/05 17:20:00,28.7, 1.1
2023/02/05 17:30:00,28.7, 1.1
2023/02/05 17:40:00,28.7, 0.6
2023/02/05 17:50:00,28.7, 0.3
2023/02/05 18:00:00,28.8, 0.3
2023/02/05 18:10:00,28.8, 0.3
2023/02/05 18:20:00,28.9, 0.0
2023/02/05 18:30:00,29.0,-0.5
2023/02/05 18:40:00,29.1,-0.4
2023/02/05 18:50:00,29.2,-0.7
2023/02/05 19:00:00,29.1,-0.9
2023/02/05 19:10:00,29.1,-0.8
2023/02/05 19:20:00,29.1,-1.1
2023/02/05 19:30:00,29.0,-1.1
2023/02/05 19:40:00,28.9,-1.6
2023/02/05 19:50:00,28.8,-1.3
2023/02/05 20:00:00,28.8,-1.5
2023/02/05 20:10:00,28.8,-1.7
2023/02/05 20:20:00,28.7,-1.4
2023/02/05 20:30:00,28.7,-1.5
2023/02/05 20:40:00,28.7,-1.7
2023/02/05 20:50:00,28.8,-1.6
2023/02/05 21:00:00,28.8,-1.8
2023/02/05 21:10:00,28.8,-1.7
2023/02/05 21:20:00,28.7,-1.9
2023/02/05 21:30:00,28.7,-2.0
2023/02/05 21:40:00,28.6,-2.3
2023/02/05 21:50:00,28.5,-2.1
2023/02/05 22:00:00,28.5,-2.0
2023/02/05 22:10:00,28.5,-2.1
2023/02/05 22:20:00,28.4,-2.1
2023/02/05 22:30:00,28.3,-2.3
2023/02/05 22:40:00,28.3,-2.4
2023/02/05 22:50:00,28.3,-2.4
2023/02/05 23:00:00,28.3,-2.1
2023/02/05 23:10:00,28.3,-4.6
2023/02/05 23:20:00,28.3,-2.4
2023/02/05 23:30:00,28.3,-2.7
2023/02/05 23:40:00,28.2,-2.8
2023/02/05 23:50:00,28.3,-2.6
